Regional Weather Roundup
Issued by NWS Portland, ME

Home | Current Version | Previous Version | Text Only | Print | Product List | Glossary On
Versions: 1 2 3 4 5 6 7 8 9 10 11 12 13 14 15 16 17 18 19 20 21 22 23 24 25 26 27 28 29 30 31 32 33 34 35 36 37 38 39 40 41 42 43 44 45 46 47 48 49 50
000
ASUS41 KGYX 190210
RWRGYX
WEATHER ROUNDUP FOR MAINE AND NEW HAMPSHIRE
NATIONAL WEATHER SERVICE GRAY ME
1000 PM EDT FRI AUG 18 2017

MEZ002-005-006-010-012-015-018-020-021-024-026-027-029-190300-
MAINE

CITY           SKY/WX    TMP DP  RH WIND       PRES   REMARKS
PORTLAND       LGT RAIN  66  66 100 SE7       29.82F FOG
SANFORD        LGT RAIN  63  62  97 N6        29.83S
BAR HARBOR     LGT RAIN  58  57  97 VRB7      29.95F FOG
WISCASSET      RAIN      63  62  97 E7        29.87F FOG
ROCKLAND       LGT RAIN  58  58 100 E5        29.89F
FRYEBURG       LGT RAIN  60  60 100 VRB3      29.87F FOG
LEWISTONAUBURN LGT RAIN  60  59  96 N10       29.85F
AUGUSTA        LGT RAIN  59  58  96 NE6       29.89S FOG
WATERVILLE     LGT RAIN  59  57  94 NE6       29.88S FOG
BANGOR         RAIN      60  58  92 SE12      29.93F FOG
GREENVILLE       N/A     57  57 100 SE9G17    29.91F
MILLINOCKET    LGT RAIN  59  59 100 SE7       29.97R FOG
HOULTON        CLOUDY    60  58  92 CALM      29.96R
PRESQUE ISLE   CLOUDY    59  57  93 VRB5      29.97S
FRENCHVILLE    CLOUDY    59  53  80 S16       29.95R
CARIBOU        CLOUDY    60  56  86 S5        29.95S
$$

NHZ002-005-008-009-011-012-014-190300-
NEW HAMPSHIRE

CITY           SKY/WX    TMP DP  RH WIND       PRES   REMARKS
PORTSMOUTH     LGT RAIN  70  70  98 W5        29.80S VSB 3/4
ROCHESTER      LGT RAIN  63  61  93 N5        29.82R
NASHUA         LGT RAIN  67  67 100 NW6       29.82S
MANCHESTER     CLOUDY    67  64  90 NW5       29.81R
CONCORD        LGT RAIN  64  63  96 NW3       29.83S FOG
LACONIA        CLOUDY    62  60  93 NE8       29.85S
PLYMOUTH       CLOUDY    62  60  94 CALM      29.84F
BERLIN         CLOUDY    62  58  86 N3        29.88R
WHITEFIELD     CLOUDY    62  58  86 CALM      29.85R
JAFFREY        CLOUDY    65  65 100 CALM      29.84S
KEENE            N/A    N/A N/A N/A MISG        N/A
LEBANON        CLOUDY    66  63  90 NE5       29.81S
MT WASHINGTON  FOG       55  55 100 SW18        N/A  VSB 1/16
$$

VTZ005-007-008-190300-
VERMONT

CITY           SKY/WX    TMP DP  RH WIND       PRES   REMARKS
ST JOHNSBURY     N/A     65  65 100 MISG      29.81R
MONTPELIER     CLOUDY    66  66 100 S7        29.85S
BURLINGTON     PTCLDY    72  67  84 E5        29.75R
$$

MAZ007-012-024-CTZ003-RIZ002-NYZ038-NYZ072-190300-
SOUTHERN NEW ENGLAND AND NY

CITY           SKY/WX    TMP DP  RH WIND       PRES   REMARKS
BOSTON         CLOUDY    74  73  97 S10       29.81F
WORCESTER      CLOUDY    73  72  96 VRB7      29.84S FOG
NANTUCKET      MOCLDY    70  70 100 S17       29.89F
PROVIDENCE     LGT RAIN  75  75 100 SW14      29.83S FOG
HARTFORD       CLOUDY    77  76  96 S8        29.78R
ALBANY         MOCLDY    75  73  93 S8        29.76R
NEW YORK CITY  LGT RAIN  76  72  87 S8        29.79R
$$

ANZ081-ANZ082-ANZ150-NHZ014-MEZ023>029-190300-
COASTAL MARINE OBSERVATIONS

STATION/POSITION TIME  TEMP    WIND        PRES    WAVE
                       AIR SEA DIR/SP/G            HT/PER
                 (UTC) (F)     (DEG/KT/KT) (MB)    (FT/S)
MOUNT DESERT ROC 0200   61                 1013.4F
MATINICUS ROCK   0100   60     130/ 27/ 29 1011.3F
ISLE OF SHOALS   0100   68     160/ 20/ 21 1009.0F
JEFFREYS LEDGE   0106      67                N/A     4/ 5
CASHES LEDGE BUO 0150   67 68              1010.1F   4/ 5
GEORGES BANK BUO 0050   69 65              1015.7    2/ 9
$$

.............KEY..............
   WCI - WIND CHILL
   TC  - TEMPERATURE IN CELSIUS
   VSB - VISIBILITY IN MILES
   HX  - HEAT INDEX
   FAIR- INDICATES FEW OR NO CLOUDS BELOW 12,000 FT, WITH NO
         SIGNIFICANT WEATHER AND/OR OBSTRUCTIONS TO VISIBILITY.






USA.gov is the U.S. government's official web portal to all federal, state and local government web resources and services.